This demonstration page uses our WeatherBlox Daily Observations layout. Learn more.

Left ArrowRight Arrow

39.51506, -84.39828

Hourly Observations for June 26, 2016

Temp ( °F °C ) Dew Point ( °F °C ) Humidity (%) Winds ( mph kmh ) Pressure ( in mb ) Visibility ( mi km ) Precip ( " mm )
12:15 am 00:15 Clear 69 20.8 62 16.6 77 77 N N/A 30.09 1019 10 16 N/A
12:35 am 00:35 Clear 69 20.8 62 16.5 77 77 N 3 6 30.09 1019 10 16 N/A
12:55 am 00:55 Clear 69 20.8 63 17 79 79 N 3 6 30.09 1019 10 16 N/A
1:15 am 01:15 Clear 69 20.8 63 17 79 79 N N/A 30.09 1019 10 16 N/A
1:35 am 01:35 Clear 69 20.8 63 17.2 80 80 N N/A 30.09 1019 10 16 N/A
1:55 am 01:55 Clear 69 20.8 63 17.1 79 79 N N/A 30.09 1019 10 16 N/A
2:15 am 02:15 Clear 69 20.8 63 17.1 79 79 N N/A 30.09 1019 10 16 N/A
2:35 am 02:35 Clear 69 20.8 63 17.3 80 80 N N/A 30.09 1019 10 16 N/A
2:55 am 02:55 Clear 69 20.8 63 17.3 80 80 N N/A 30.09 1019 10 16 N/A
3:15 am 03:15 Clear 69 20.8 63 17.3 80 80 N N/A 30.09 1019 10 16 N/A
3:35 am 03:35 Clear 67 19.6 61 16.2 81 81 N N/A 30.09 1019 7 11 N/A
3:55 am 03:55 Clear 69 20.8 64 17.5 82 82 N N/A 30.09 1019 7 11 N/A
4:15 am 04:15 Clear 67 19.5 61 16.2 81 81 N N/A 30.09 1019 7 11 N/A
4:35 am 04:35 Clear 67 19.5 61 16.3 82 82 N N/A 30.09 1019 7 11 N/A
4:55 am 04:55 Clear 67 19.5 61 16.2 81 81 N N/A 30.09 1019 7 11 N/A
5:15 am 05:15 Hazy 67 19.5 61 16.2 81 81 N N/A 30.09 1019 5 8 N/A
5:35 am 05:35 Clear 67 19.5 61 16.3 82 82 N N/A 30.09 1019 7 11 N/A
5:55 am 05:55 Clear 67 19.4 61 16.2 82 82 N N/A 30.09 1019 7 11 N/A
6:15 am 06:15 Hazy 67 19.5 61 16.3 82 82 N N/A 30.09 1019 4 6 N/A
6:35 am 06:35 Hazy 67 19.5 62 16.4 82 82 N N/A 30.09 1019 3 5 N/A
6:55 am 06:55 Hazy 69 20.8 64 17.7 83 83 N N/A 30.09 1019 5 8 N/A
7:15 am 07:15 Hazy 69 20.8 64 17.7 83 83 N N/A 30.09 1019 5 8 N/A
7:35 am 07:35 Sunny 69 20.8 64 17.5 82 82 N N/A 30.09 1019 7 11 N/A
7:55 am 07:55 Sunny 74 23.6 68 19.8 79 79 N N/A 30.09 1019 7 11 N/A
8:15 am 08:15 undefined 74 23.6 67 19.2 76 76 N N/A 30.09 1019 10 16 N/A
8:35 am 08:35 Sunny 77 25.1 67 19.5 71 71 N N/A 30.09 1019 10 16 N/A
8:55 am 08:55 Sunny 80 26.5 67 19.4 65 65 SSW 5 7 30.09 1019 10 16 N/A
9:15 am 09:15 Sunny 80 26.5 66 19.1 64 64 SSW 5 7 30.12 1020 10 16 N/A
9:35 am 09:35 Sunny 81 27.4 66 18.9 60 60 S 8 13 30.12 1020 10 16 N/A
9:55 am 09:55 Sunny 82 28 65 18.4 56 56 SW 8 13 30.12 1020 10 16 N/A
10:15 am 10:15 Sunny 83 28.3 64 17.9 53 53 S 6 9 30.12 1020 10 16 N/A
10:35 am 10:35 Sunny 84 29 64 17.8 51 51 SSW 8 13 30.12 1020 10 16 N/A
10:55 am 10:55 Sunny 87 30.8 67 19.5 51 51 SSW 6 9 30.06 1018 10 16 N/A
11:15 am 11:15 Sunny 90 32.1 68 20 49 49 SSW 8 13 30.06 1018 10 16 N/A
11:35 am 11:35 Sunny 90 32.1 67 19.6 48 48 SSW 9 15 30.06 1018 10 16 N/A
11:55 am 11:55 Sunny 90 32.1 67 19.7 48 48 SSW 8 13 30.06 1018 10 16 N/A
12:15 pm 12:15 Sunny 90 32.1 67 19.4 47 47 SSW 8 13 30.06 1018 10 16 N/A
12:35 pm 12:35 Sunny 90 32.1 67 19.3 47 47 S 7 11 30.06 1018 10 16 N/A
12:55 pm 12:55 Sunny 90 32.1 67 19.4 47 47 SSW 8 13 30.06 1018 10 16 N/A
1:15 pm 13:15 Partly Cloudy 90 32.1 67 19.5 47 47 SSW 8 13 30.03 1017 10 16 N/A
1:35 pm 13:35 Sunny 92 33.1 68 19.8 45 45 SW 6 9 30.03 1017 10 16 N/A
1:55 pm 13:55 Sunny 92 33.2 68 20.2 46 46 SSW 7 11 30.03 1017 10 16 N/A
2:15 pm 14:15 Partly Cloudy 90 32.1 67 19.2 46 46 S 6 9 30.03 1017 10 16 N/A
2:35 pm 14:35 Partly Cloudy 92 33.5 69 20.3 46 46 SSW 10 17 30.00 1016 10 16 N/A
2:55 pm 14:55 Sunny 94 34.3 69 20.4 44 44 S 6 9 30.00 1016 10 16 N/A
3:15 pm 15:15 Partly Cloudy 93 33.7 68 19.8 44 44 SW 7 11 30.00 1016 10 16 N/A
3:35 pm 15:35 Partly Cloudy 95 35 69 20.3 42 42 SSE 7 11 30.00 1016 10 16 N/A
3:55 pm 15:55 Sunny 95 35 67 19.5 40 40 WSW 9 15 30.00 1016 10 16 N/A
4:15 pm 16:15 Partly Cloudy 95 35 66 19.1 39 39 SSW 12 19 29.97 1015 10 16 N/A
4:35 pm 16:35 Sunny 91 32.5 66 18.8 44 44 WSW 16 26 30.00 1016 10 16 N/A
4:55 pm 16:55 Sunny 91 32.9 68 19.8 46 46 SW 8 13 29.97 1015 10 16 N/A
5:15 pm 17:15 Sunny 94 34.4 67 19.2 41 41 SW 8 13 29.97 1015 10 16 N/A
5:35 pm 17:35 Sunny 95 35 69 20.7 43 43 SSW 9 15 29.94 1014 10 16 N/A
5:55 pm 17:55 Sunny 92 33.5 67 19.6 44 44 SSW 9 15 29.94 1014 10 16 N/A
6:15 pm 18:15 Sunny 92 33.5 67 19.6 44 44 SSW 9 15 29.94 1014 10 16 N/A
6:35 pm 18:35 Partly Cloudy 95 35 70 20.9 44 44 S 8 13 29.94 1014 10 16 N/A
6:55 pm 18:55 Mostly Cloudy 93 34 67 19.5 42 42 SW 12 19 29.94 1014 10 16 N/A
7:15 pm 19:15 Partly Cloudy 92 33.5 65 18.5 41 41 SW 8 13 29.94 1014 10 16 N/A
7:35 pm 19:35 Partly Cloudy 90 32.2 64 17.8 42 42 SW 6 9 29.94 1014 10 16 N/A
7:55 pm 19:55 Sunny 90 32.1 65 18.4 44 44 SW 7 11 29.94 1014 10 16 N/A
8:15 pm 20:15 Sunny 90 32.1 67 19.3 47 47 SW 6 9 29.94 1014 10 16 N/A
8:35 pm 20:35 Sunny 87 30.7 68 20 53 53 SSW 5 7 29.94 1014 10 16 N/A
8:55 pm 20:55 Sunny 83 28.6 68 19.8 59 59 N N/A 29.97 1015 10 16 N/A
9:15 pm 21:15 Clear 82 27.6 70 21.3 69 69 N N/A 30.00 1016 10 16 N/A
9:35 pm 21:35 Partly Cloudy 80 26.9 71 21.4 72 72 N N/A 30.00 1016 10 16 N/A
9:55 pm 21:55 Partly Cloudy 80 26.5 70 21 72 72 N N/A 30.00 1016 10 16 N/A
10:15 pm 22:15 Mostly Cloudy 81 27.2 66 18.8 60 60 NNE 12 19 30.03 1017 10 16 N/A
10:35 pm 22:35 Cloudy 80 26.5 66 18.8 63 63 N 13 20 30.06 1018 10 16 N/A
10:55 pm 22:55 Cloudy with Light Rain 77 25.1 68 20 73 73 N 5 7 30.06 1018 10 16 N/A
11:15 pm 23:15 Partly Cloudy 76 24.4 69 20.6 79 79 N N/A 30.03 1017 10 16 N/A
11:35 pm 23:35 Clear 74 23.6 68 20.2 81 81 N N/A 30.03 1017 10 16 N/A
11:55 pm 23:55 Clear 76 24.2 70 21 82 82 N N/A 30.03 1017 7 11 N/A

Powered by AerisWeather